Погода в Могилеве

Россия / Псковская область     57°35′14″N   29°35′29″E
темп.,
°C
ветер,
м/с
пор.,
м/с
влажн.,
%
обл.,
%
осадки,
мм/ч
давл.,
гПа
погр.,
м
28 июля, ср
ср2800:00+18ююв288156 0.0 1014171
03:00+17ююв41289100 0.6 1013391
06:00+17ююв2789100 0.1 1012180
09:00+17ююв2697100 0.7 1012197
12:00+22ююв3477100 0.4 1010748
15:00+23ююз3384100 3.8 1009733
18:00+22зюз238743 4.3 1008424
21:00+18юз229510 7.3 100818
29 июля, чт
чт2900:00+17юз24965 1.9 100860
03:00+17з269788 2.4 1007126
06:00+16зюз279781 0.0 1007154
09:00+19юз378699 0.0 1006302
12:00+21юз487427 0.2 1006588
15:00+26зюз485050 0.9 10041998
18:00+24з385474 0.1 10031433
21:00+19юз237261 0.1 100445
30 июля, пт
пт3000:00+18зюз310728 0.0 1005323
03:00+15зюз39905 0.0 1004206
06:00+14юз410888 0.0 1005314
09:00+18зюз58605 0.0 10051128
12:00+22зюз6104391 0.0 10042396
15:00+21зюз394692 0.0 10032035
18:00+19юз495194 0.0 1003901
21:00+18ююз41056100 0.0 1001557
31 июля, сб
сб3100:00+16ююз512645 0.0 10011019
03:00+15юз6136797 0.1 10001076
06:00+16юз6137195 0.2 10001011
09:00+19зюз69684 0.3 10011259
12:00+23зюз69473 0.0 10021822
15:00+22зюз696598 0.6 10031443
18:00+23зюз4855100 0.1 10031675
21:00+18ююз2772100 0.1 1003142
1 августа, вс
вс100:00+16ююз2674100 0.0 1003107
03:00+15ююз31195100 0.6 1002323
06:00+15юз4999100 5.7 1002410
09:00+18юз510830 5.8 1003784
12:00+21зюз6105581 0.1 10031674
15:00+22зюз6105395 0.5 10041829
18:00+21ююз495852 0.1 1004846
21:00+19зюз2564100 0.1 1005208